www.pogodaiklimat.ru

Погода и климат >> Архив погоды >> Мексика >> Эрмосильо


ПОГОДА в Эрмосильо

  • Прогноз погоды в Эрмосильо
  • Монитор погоды в Эрмосильо

АРХИВ ПОГОДЫ в Эрмосильо

Время (UTC), дата Ветер
(напр.,м/с)
 
Видим.   Явления Облачность Т
(С)
Тd
(С)
f
(%)
Тe
(С)
Тes
(С)
Комфортность P
(гПа)
Po
(гПа)
Тmin
(С)
Tmax
(С)
R
(мм)
R24
(мм)
S
(см)
15 14.01 В 1 12 км 8/0
[Ci sp]
+10.6 +7.6 82 +10 +11 1019.9 994.4
18 14.01 В 2 12 км 9/0
[Ci sp]
+19.4 +10.6 57 +21 +27 комфорт 1020.1 994.9 +10.0 +19.4
21 14.01 СВ 1 12 км 9/0
[Ci fib]
+22.0 +9.8 46 +24 +31 комфорт 1016.5 991.8
00 15.01 С 1 12 км 9/0
[Cs]
+21.6 +9.3 45 +23 +23 комфорт 1016.4 991.8 +10.0 +27.0
03 15.01 С 1 12 км 9/0
[Cs]
+21.6 +9.3 45 +23 +23 комфорт 1016.4 991.8 +10.0 +27.0
06 15.01 штиль 0 8000 м 4/0
[Ac lent]
+14.2 +8.8 70 +14 +14 1019.4 994.5 +23.0
09 15.01 штиль 0 8000 м 4/0
[Ac lent]
+14.2 +8.8 70 +14 +14 1019.4 994.5 +23.0
15 15.01 СВ 1 12 км 3/3 900 м
[Sc diur, vesp]
+10.0 +7.3 83 +10 +10 1020.2 994.9
18 15.01 СВ 1 12 км 3/3 900 м
[Sc diur, vesp]
+19.6 +11.2 58 +22 +28 комфорт 1021.4 996.2 +9.5 +19.6
21 15.01 ЮЗ 1 12 км 6/6 900 м
[Sc]
+22.6 +13.3 56 +26 +29 жарко 1017.7 993.0
00 16.01 ЮЗ 1 12 км 6/6 900 м
[Sc]
+22.6 +13.3 56 +26 +26 жарко 1017.7 993.0
15 16.01 СВ 2 10 км 9/6 900 м
[Sc As op]
+11.4 +10.0 91 +10 +10 1022.1 996.7
18 16.01 СВ 2 12 км 9/9 900 м
[Sc]
+18.2 +12.6 70 +19 +20 1022.5 997.2 +9.0 +18.2
21 16.01 ЮВ 1 12 км 3/3 900 м
[Sc]
+24.0 +13.9 53 +26 +32 жарко 1017.9 993.2
00 17.01 З 1 12 км 4/0
[Ci fib]
+25.0 +10.4 40 +26 +26 жарко 1017.5 993.1 +9.0 +26.5
03 17.01 штиль 0 8000 м ясно +18.6 +11.6 64 +19 +19 1019.0 994.3
06 17.01 штиль 0 8000 м ясно +17.6 +10.4 63 +18 +18 1020.0 995.3 +26.5
15 17.01 В 2 12 км 6/6 900 м
[St]
+12.6 +10.1 85 +12 +12 1019.4 994.4
18 17.01 В 2 12 км 1/1 900 м
[Sc diur, vesp]
+22.4 +10.7 47 +24 +32 комфорт 1020.6 995.6 +12.5 +22.4
21 17.01 З 2 12 км 1/0
[Ci fib]
+25.8 +10.2 37 +27 +34 жарко 1017.2 992.6
00 18.01 З 3 12 км 1/0
[Ci fib]
+26.8 +7.5 29 +26 +27 жарко 1016.8 992.5 +12.5 +28.0
03 18.01 З 1 8000 м ясно +21.4 +8.9 45 +23 +23 комфорт 1019.0 994.5
06 18.01 штиль 0 8000 м ясно +17.0 +10.1 64 +17 +17 1019.7 995.1 +28.0
15 18.01 СВ 1 12 км ясно +11.6 +7.5 76 +12 +12 1019.6 994.6
18 18.01 штиль 0 50 км ?/? +30.2 -0.8 13 +27 +27 жарко 1019.9 994.8 +11.5 +21.2
21 18.01 ЮЗ 1 12 км 1/0
[Ci fib]
+26.6 +7.7 30 +26 +35 жарко 1015.4 992.0
00 19.01 З 1 12 км 1/0
[Ci fib]
+28.0 +8.4 29 +28 +28 жарко 1015.3 991.1 +12.0 +28.5
03 19.01 штиль 0 8000 м 1/0
[Ci fib]
+21.6 +7.4 40 +23 +23 комфорт 1017.5 992.9

 

Местоположение метеостанции Эрмосильо (Мексика): широта 29.09 долгота -111.05 высота над уровнем моря 191 м.

В архиве по умолчанию представлена погода в Эрмосильо за последнюю неделю. Архивные данные за месяц целиком и за предыдущие месяцы, начиная с января 2011 года, Вы можете получить, выбрав интересующий диапазон дат из раскрывающегося списка и нажав кнопку "Ввод!".


*Определитесь, кто Вы:
робот инопланетянин человек

Внимание! Время в таблицах - всемирное. Для получения местного времени необходимо прибавить поправку, которая равна -7 ч.

Смотрите также архив погоды в соседних городах и на ближайших метеорологических станциях:

Погода в Эрмосильо Магна (Мексика) (10 км)
Погода в Гуаймасе (Мексика) (131 км)
Погода в Эмпальме (Мексика) (131 км)
Погода в Накосари де Гарсия (Мексика) (194 км)
Погода в Альтаре (Мексика) (196 км)
Погода с Сьюдад-Обрегоне (Мексика) (224 км)
Погода в Санта-Розалии (Мексика) (233 км)
Погода в Темосачи (Мексика) (316 км)
Погода в Нуэво-Касас-Грандесе (Мексика) (336 км)
Погода в Лорето (Мексика) (342 км)

Пояснения к столбцам:

Ветер - указаны скорость ветра в м/с - средняя за 10 мин, порывы в срок и между сроками (в фигурных скобках) и направление, откуда дует ветер: С - северный, СВ - северо-восточный, В - восточный, ЮВ - юго-восточный, Ю - южный, ЮЗ - юго-западный, З - западный, СЗ - северо-западный.
Видимость - горизонтальная дальность видимости в метрах или километрах. При видимости от 1 до 10 км при отсутствии осадков обычно наблюдается дымка, при ухудшении видимости до 1 км и менее - туман. В сухую погоду видимость может ухудшаться дымом, пылью или мглою.
Явления - указаны атмосферные явления, наблюдавшиеся в срок или в последний час перед сроком; фигурными скобками обозначены явления, наблюдавшиеся между сроками (за 1-3 часа до срока); квадратными скобками обозначены град или гололедные отложения с указанием их диаметра в мм.
Облачность - указаны через наклонную черту общая и нижняя облачность в баллах и высота нижней границы облаков в метрах; квадратными скобками обозначены формы облаков: Ci - перистые, Cs - перисто-слоистые, Cc - перисто-кучевые, Ac - высококучевые, As - высокослоистые, Sc - слоисто-кучевые, Ns - слоисто-дождевые, Cu - кучевые, Cb - кучево-дождевые. Подробнее классификацию облаков см. в Атласе облаков (PDF).
T - Температура воздуха - температура, измеренная на высоте 2 м над землей.
Td - Температура точки росы - температура, при понижении до которой содержащийся в воздухе водяной пар достигнет насыщения.
f - Относительная влажность воздуха - влажноcть воздуха, измеренная на высоте 2 м над землей.
Te - Эффективная температура - температура, которую ощущает одетый по сезону человек в тени. Характеристика душности погоды. При расчете учитывается влияние влажности воздуха и скорости ветра на теплоощущения человека.
Tes - Эффективная температура на солнце - температура, которую ощущает человек, с поправкой на солнечный нагрев. Характеристика знойности погоды. Зависит от высоты солнца над горизонтом, облачности и скорости ветра. Ночью, в пасмурную погоду, а также при ветре 12 м/с и более поправка равна нулю.
P - Атмосферное давление - приведенное к уровню моря атмосферное давление.
Po - Атмосферное давление - измеренное на уровне метеостанции атмосферное давление.
Tmin - Минимальная температура - минимум температуры воздуха на высоте 2 м над землей.
Tmax - Максимальная температура - максимум температуры воздуха на высоте 2 м над землей.
R - Количество осадков - Количество выпавших осадков за период времени, мм. При наведении курсора мыши на число - период времени, за который выпало указанное количество осадков.
R24 - Количество осадков - Количество выпавших осадков за 24 часа, мм.
S - Снежный покров - Высота снежного покрова, см. При наведении курсора мыши на число - состояние снежного покрова и степень покрытия местности в баллах.